Regional Weather Roundup
Issued by NWS

Home | Current Version | Previous Version | Graphics & Text | Print | Product List | Glossary On
Versions: 1 2 3 4 5 6 7 8 9 10 11 12 13 14 15 16 17 18 19 20 21 22 23 24 25 26 27 28 29 30 31 32 33 34 35 36 37 38 39 40 41 42 43 44 45 46 47 48 49 50
000
ASUS45 KTFX 060310
RWRMT
MONTANA REGIONAL WEATHER ROUNDUP
NATIONAL WEATHER SERVICE GREAT FALLS MT
900 PM MDT SUN JUL 05 2015

NOTE: "FAIR" INDICATES FEW OR NO CLOUDS BELOW 12000 FEET WITH NO
SIGNIFICANT WEATHER AND/OR OBSTRUCTIONS TO VISIBILITY.

MTZ001>007-043-060400-
WEST OF THE DIVIDE

CITY           SKY/WX    TMP DP  RH WIND       PRES   REMARKS
KALISPELL      CLEAR     63  41  44 NE9G20    30.15R
MISSOULA       CLOUDY    66  46  48 N20G26    30.10R
BUTTE          CLOUDY    58  46  64 W12G22    30.19R
MULLAN PASS    CLEAR     56  45  66 VRB6      30.17R
DEER LODGE       N/A     54  45  71 N12       30.25R
EUREKA           N/A     68  37  32 NE10G18   30.13R
HAMILTON         N/A     68  50  52 N9        30.06R
LIBBY            N/A     70  43  37 E6        30.12R
PLAINS           N/A     72  44  36 N3        30.10R
RONAN            N/A     66  47  50 NW13      30.15R
$$

MTZ008-052>055-060400-
SOUTHWEST MONTANA

CITY           SKY/WX    TMP DP  RH WIND       PRES   REMARKS
BOZEMAN        CLOUDY    59  51  75 VRB3      30.17R
DILLON         CLOUDY    56  51  84 NE16      30.14F
W YELLOWSTONE  HVY RAIN  50  48  93 E7        30.21R
$$

MTZ009-010-012-014-046-048-049-054-060400-
EAST SLOPES AND CENTRAL MONTANA

CITY           SKY/WX    TMP DP  RH WIND       PRES   REMARKS
CUT BANK       PTCLDY    52  48  86 W5        30.25R
GREAT FALLS    LGT RAIN  50  49  96 N8        30.26R FOG
MALMSTROM AFB  CLOUDY    51  49  94 N8        30.26S
HELENA         CLOUDY    54  49  83 W8        30.23R
CONRAD           N/A     54  54 100 CALM      30.25S
$$

MTZ011-013-016-021-045-047-050-051-060400-
NORTH CENTRAL MONTANA

CITY           SKY/WX    TMP DP  RH WIND       PRES   REMARKS
HAVRE          CLOUDY    59  52  77 MISG      30.19R
LEWISTOWN      CLOUDY    53  49  86 NW5       30.23R
CHINOOK          N/A     61  54  77 W5        30.18R
FORT BENTON      N/A     55  52  88 SW5       30.25R
$$

MTZ017>020-022>027-061-062-060400-
NORTHEAST MONTANA

CITY           SKY/WX    TMP DP  RH WIND       PRES   REMARKS
GLASGOW        MOCLDY    63  51  65 W6        30.10R
JORDAN           N/A     58  56  93 W8        30.14R
SIDNEY         CLOUDY    64  50  59 NW7       30.06R
WOLF POINT     CLOUDY    64  52  64 NW6       30.07S
MALTA            N/A    N/A N/A N/A MISG      30.10
PLENTYWOOD       N/A     61  48  63 N6        30.07R
POPLAR           N/A     64  52  63 NW7       30.07S
$$

MTZ028>42-056>058-060400-
SOUTHCENTRAL AND SOUTHEAST MONTANA

CITY           SKY/WX    TMP DP  RH WIND       PRES   REMARKS
BAKER          CLOUDY    65  48  54 N10       30.09R
BILLINGS       CLOUDY    59  48  67 NE15      30.19R
LIVINGSTON     MOCLDY    56  50  80 E12       30.18F HAZE
MILES CITY     LGT RAIN  59  56  89 N9        30.11R
EKALAKA          N/A     60  52  75 CALM      30.08R
FORSYTH          N/A     59  54  82 W3        30.15R
LAUREL           N/A     59  48  66 NE1       30.17R
$$

REGIONAL REPORTS...DAKOTAS

CITY           SKY/WX    TMP DP  RH WIND       PRES   REMARKS
WILLISTON      CLOUDY    68  50  52 N8        30.05R
MINOT          CLOUDY    63  54  72 NW9       29.98R HAZE
DICKINSON      CLOUDY    64  52  64 N7        30.02F
BEACH          CLOUDY    61  57  88 NW6       30.08S
CROSBY         FAIR      59  57  94 NW7       30.05R
BISMARCK       CLOUDY    70  61  73 N9        29.95F HAZE
GRAND FORKS    CLOUDY    65  60  84 NW7       29.84F HAZE
FARGO          PTCLDY    71  66  84 N13       29.84R
BUFFALO SD       N/A     62  55  77 N9        30.00S
RAPID CITY     RAIN      63  61  93 N15       30.03S FOG
$$

REGIONAL REPORTS...WYOMING/IDAHO/WASHINGTON

CITY           SKY/WX    TMP DP  RH WIND       PRES   REMARKS
GILLETTE       CLOUDY    56  55  97 N9        30.13S FOG
SHERIDAN       CLOUDY    57  53  86 W5        30.18R FOG
BUFFALO WY     CLOUDY    53  52  96 N12       30.20R FOG
CODY           CLOUDY    54  48  82 NW12      30.19R
YELLOWSTONE LA   N/A     54  41  61 NW15G35   30.28R
IDAHO FALLS    MOCLDY    72  52  49 SE6       30.01F
SALMON         CLOUDY    75  50  41 E7        29.96R
BOISE          MOCLDY    77  52  41 S3        29.94R
SPOKANE        PTCLDY    82  39  21 NE16      29.95R
$$

REGIONAL REPORTS...ALBERTA

CITY           SKY/WX    TMP DP  RH WIND       PRES   REMARKS
EDMONTON       CLEAR     63  43  48 CALM      30.15S
CALGARY        MOCLDY    57  45  62 E7        30.23R
LETHBRIDGE     PTCLDY    57  50  77 SW6       30.22S
MEDICINE HAT   MOCLDY    61  46  59 NW7       30.17S
WATERTON GATE    N/A     55  45  67 SE1         N/A
CARDSTON         N/A     57  50  77 SE2         N/A
MILK RIVER       N/A     55  48  76 N1          N/A
ONEFOUR          N/A     57  50  77 W10         N/A
$$

REGIONAL REPORTS...SASKATCHEWAN

CITY           SKY/WX    TMP DP  RH WIND       PRES   REMARKS
SWIFT CURRENT  CLOUDY    57  46  67 NW7       30.14R
REGINA         CLOUDY    61  52  72 N12       30.08R
SASKATOON      MOCLDY    57  46  67 N6        30.12R
CYPRESS HILLS    N/A     52  45  76 NW2         N/A
VAL MARIE        N/A     59  50  72 NW8         N/A
ROCKGLEN         N/A     55  46  71 NW6         N/A
ASSINIBOIA       N/A     63  45  51 NW2         N/A
$$



USA.gov is the U.S. government's official web portal to all federal, state and local government web resources and services.